| time (UTC) | temp F | wind direction | speed knots | gust knots | rain 1hr in | rain 24hr in | rain mn in | humidity % | barometer mb |
| 20260505183041 | 48 | 39 | 12.2 | 18.2 | 0.00 | 0.00 | 0.00 | 34 | 1019.8 |
| 20260505181532 | 46 | 24 | 10.4 | 21.7 | 0.00 | 0.00 | 0.00 | 37 | 1019.8 |
| 20260505180031 | 47 | 21 | 10.4 | 17.4 | 0.00 | 0.00 | 0.00 | 37 | 1019.9 |
| 20260505174528 | 46 | 9 | 12.2 | 17.4 | 0.00 | 0.00 | 0.00 | 40 | 1019.8 |
| 20260505173027 | 47 | 18 | 13.9 | 20.0 | 0.00 | 0.00 | 0.00 | 38 | 1019.8 |
| 20260505171526 | 46 | 36 | 13.0 | 18.2 | 0.00 | 0.00 | 0.00 | 40 | 1019.9 |
| 20260505170033 | 45 | 25 | 7.8 | 15.6 | 0.00 | 0.00 | 0.00 | 44 | 1020.0 |
| 20260505164524 | 44 | 25 | 11.3 | 18.2 | 0.00 | 0.00 | 0.00 | 46 | 1020.0 |
| 20260505163023 | 43 | 360 | 11.3 | 16.5 | 0.00 | 0.00 | 0.00 | 47 | 1020.0 |
| 20260505161516 | 42 | 8 | 7.8 | 12.2 | 0.00 | 0.00 | 0.00 | 52 | 1020.1 |
| 20260505153012 | 42 | 330 | 3.5 | 7.8 | 0.00 | 0.00 | 0.00 | 58 | 1020.3 |
| 20260505151510 | 41 | 333 | 2.6 | 6.1 | 0.00 | 0.00 | 0.00 | 61 | 1020.3 |
| 20260505124601 | 38 | 358 | 1.7 | 5.2 | 0.00 | 0.00 | 0.00 | 61 | 1019.7 |
| 20260505123156 | 38 | 37 | 2.6 | 5.2 | 0.00 | 0.00 | 0.00 | 61 | 1019.6 |
| 20260505121554 | 38 | 41 | 2.6 | 7.0 | 0.00 | 0.00 | 0.00 | 61 | 1019.5 |
| 20260505120105 | 39 | 62 | 1.7 | 7.0 | 0.00 | 0.00 | 0.00 | 60 | 1019.5 |
| 20260505114547 | 39 | 47 | 1.7 | 4.3 | 0.00 | 0.00 | 0.00 | 57 | 1019.4 |
| 20260505113048 | 40 | 86 | 0.9 | 1.7 | 0.00 | 0.00 | 0.00 | 56 | 1019.3 |
| 20260505111547 | 40 | 65 | 0.9 | 1.7 | 0.00 | 0.00 | 0.00 | 55 | 1019.3 |
| 20260505101537 | 41 | 56 | 1.7 | 5.2 | 0.00 | 0.00 | 0.00 | 52 | 1019.0 |
| 20260505100036 | 41 | 54 | 1.7 | 5.2 | 0.00 | 0.00 | 0.00 | 52 | 1018.8 |
| 20260505094534 | 41 | 48 | 2.6 | 5.2 | 0.00 | 0.00 | 0.00 | 53 | 1018.8 |
| 20260505093045 | 41 | 30 | 1.7 | 3.5 | 0.00 | 0.00 | 0.00 | 54 | 1018.7 |
| 20260505091531 | 41 | 4 | 0.9 | 2.6 | 0.00 | 0.00 | 0.00 | 53 | 1018.6 |
| 20260505090032 | 41 | 4 | 0.9 | 2.6 | 0.00 | 0.00 | 0.00 | 52 | 1018.6 |
| 20260505084531 | 41 | 3 | 0.9 | 3.5 | 0.00 | 0.00 | 0.00 | 52 | 1018.6 |
| 20260505083028 | 41 | 21 | 0.0 | 2.6 | 0.00 | 0.00 | 0.00 | 53 | 1018.7 |
| 20260505081527 | 40 | 320 | 0.0 | 1.7 | 0.00 | 0.00 | 0.00 | 51 | 1018.7 |
| 20260505080029 | 40 | 302 | 0.0 | 0.9 | 0.00 | 0.00 | 0.00 | 51 | 1018.7 |
| 20260505074524 | 40 | 302 | 0.9 | 2.6 | 0.00 | 0.00 | 0.00 | 53 | 1018.7 |
| 20260505073021 | 40 | 103 | 0.0 | 0.9 | 0.00 | 0.00 | 0.00 | 49 | 1018.6 |
| 20260505071519 | 40 | 103 | 0.9 | 1.7 | 0.00 | 0.00 | 0.00 | 49 | 1018.5 |
| 20260505070023 | 41 | 65 | 1.7 | 4.3 | 0.00 | 0.00 | 0.00 | 51 | 1018.6 |
| 20260505064514 | 41 | 71 | 5.2 | 8.7 | 0.00 | 0.00 | 0.00 | 50 | 1018.4 |
| 20260505063011 | 41 | 73 | 3.5 | 8.7 | 0.00 | 0.00 | 0.00 | 50 | 1018.2 |
| 20260505061512 | 41 | 63 | 3.5 | 7.8 | 0.00 | 0.00 | 0.00 | 48 | 1018.1 |
| 20260505060005 | 42 | 94 | 3.5 | 7.8 | 0.00 | 0.00 | 0.00 | 48 | 1018.1 |
| 20260505054503 | 42 | 91 | 5.2 | 7.8 | 0.00 | 0.00 | 0.00 | 48 | 1018.0 |
| 20260505053003 | 42 | 81 | 4.3 | 8.7 | 0.00 | 0.00 | 0.00 | 48 | 1017.8 |
| 20260505051600 | 42 | 60 | 5.2 | 9.6 | 0.00 | 0.00 | 0.00 | 48 | 1017.8 |
| 20260505041556 | 44 | 99 | 7.8 | 13.0 | 0.00 | 0.00 | 0.00 | 45 | 1017.5 |
| 20260505040059 | 44 | 62 | 7.0 | 12.2 | 0.00 | 0.00 | 0.00 | 43 | 1017.5 |
| 20260505034546 | 44 | 72 | 7.8 | 13.0 | 0.00 | 0.00 | 0.00 | 44 | 1017.3 |
| 20260505033043 | 44 | 98 | 5.2 | 11.3 | 0.00 | 0.00 | 0.00 | 42 | 1017.1 |
| 20260505031549 | 46 | 63 | 7.0 | 13.9 | 0.00 | 0.00 | 0.00 | 41 | 1017.0 |
| 20260505030040 | 47 | 57 | 8.7 | 13.9 | 0.00 | 0.00 | 0.00 | 38 | 1016.6 |
| 20260505024534 | 48 | 56 | 8.7 | 13.9 | 0.00 | 0.00 | 0.00 | 36 | 1016.5 |
| 20260505023033 | 50 | 76 | 7.8 | 14.8 | 0.00 | 0.00 | 0.00 | 28 | 1016.3 |
| 20260505021536 | 51 | 54 | 9.6 | 14.8 | 0.00 | 0.00 | 0.00 | 26 | 1016.1 |
| 20260505020039 | 52 | 58 | 11.3 | 17.4 | 0.00 | 0.00 | 0.00 | 24 | 1015.8 |
| 20260505014531 | 53 | 58 | 13.9 | 17.4 | 0.00 | 0.00 | 0.00 | 22 | 1015.7 |
| 20260505013030 | 54 | 24 | 13.0 | 20.9 | 0.00 | 0.00 | 0.00 | 22 | 1015.6 |
| 20260505011529 | 55 | 1 | 11.3 | 15.6 | 0.00 | 0.00 | 0.00 | 21 | 1015.6 |
| 20260505010028 | 55 | 20 | 10.4 | 20.0 | 0.00 | 0.00 | 0.00 | 20 | 1015.6 |
| 20260505004529 | 55 | 351 | 8.7 | 15.6 | 0.00 | 0.00 | 0.00 | 27 | 1015.7 |
| 20260505003027 | 55 | 345 | 13.0 | 20.9 | 0.00 | 0.00 | 0.00 | 25 | 1015.7 |
| 20260505001526 | 56 | 352 | 15.6 | 22.6 | 0.00 | 0.00 | 0.00 | 22 | 1015.7 |
| 20260505000039 | 56 | 30 | 17.4 | 23.5 | 0.00 | 0.00 | 0.00 | 22 | 1015.6 |
| 20260504234527 | 55 | 360 | 13.9 | 20.9 | 0.00 | 0.00 | 0.00 | 23 | 1015.8 |
| 20260504233023 | 55 | 16 | 9.6 | 24.3 | 0.00 | 0.00 | 0.00 | 23 | 1015.8 |
| 20260504231522 | 56 | 27 | 16.5 | 21.7 | 0.00 | 0.00 | 0.00 | 25 | 1015.8 |
| 20260504230020 | 54 | 340 | 10.4 | 18.2 | 0.00 | 0.00 | 0.00 | 31 | 1015.8 |
| 20260504224520 | 55 | 335 | 8.7 | 13.0 | 0.00 | 0.00 | 0.00 | 32 | 1015.7 |
| 20260504223019 | 54 | 30 | 13.9 | 22.6 | 0.00 | 0.00 | 0.00 | 30 | 1015.9 |
| 20260504221525 | 54 | 19 | 11.3 | 19.1 | 0.00 | 0.00 | 0.00 | 31 | 1015.9 |
| 20260504220033 | 54 | 20 | 13.0 | 18.2 | 0.00 | 0.00 | 0.00 | 31 | 1015.9 |
| 20260504214516 | 54 | 16 | 10.4 | 17.4 | 0.00 | 0.00 | 0.00 | 32 | 1015.8 |
| 20260504213016 | 54 | 20 | 15.6 | 20.0 | 0.00 | 0.00 | 0.00 | 30 | 1015.9 |
| 20260504211515 | 54 | 39 | 15.6 | 22.6 | 0.00 | 0.00 | 0.00 | 30 | 1015.9 |
| 20260504210013 | 56 | 8 | 13.9 | 19.1 | 0.00 | 0.00 | 0.00 | 29 | 1015.9 |
| 20260504204514 | 55 | 7 | 14.8 | 25.2 | 0.00 | 0.00 | 0.00 | 30 | 1015.8 |
| 20260504203012 | 55 | 34 | 13.0 | 19.1 | 0.00 | 0.00 | 0.00 | 30 | 1015.8 |
| 20260504201512 | 55 | 351 | 8.7 | 21.7 | 0.00 | 0.00 | 0.00 | 33 | 1015.8 |
| 20260504200010 | 55 | 349 | 11.3 | 20.0 | 0.00 | 0.00 | 0.00 | 33 | 1015.7 |
| 20260504194509 | 55 | 335 | 12.2 | 18.2 | 0.00 | 0.00 | 0.00 | 34 | 1015.7 |
| 20260504193009 | 55 | 347 | 14.8 | 20.9 | 0.00 | 0.00 | 0.00 | 31 | 1015.8 |
| 20260504191508 | 56 | 20 | 12.2 | 18.2 | 0.00 | 0.00 | 0.00 | 32 | 1015.8 |
| 20260504190011 | 55 | 18 | 13.0 | 21.7 | 0.00 | 0.00 | 0.00 | 31 | 1015.9 |
| 20260504184507 | 56 | 315 | 10.4 | 21.7 | 0.00 | 0.00 | 0.00 | 32 | 1016.0 |